Theta_e
309 309 309 310 310 309 309 308 309 309 311 311 311 310 311 313 314 315 314 315 316 319 319 319 318 318 317 308 308 318 320 322 321 319 314 311 310 307 305 304 305 304 307 310 310 310 311
309 309 310 310 309 308 309 309 308 309 309 311 312 310 310 311 313 314 315 313 315 318 320 318 318 319 311 300 318 318 318 319 318 316 314 313 310 310 305 303 302 303 306 309 310 309 311
310 308 309 310 310 310 310 308 309 310 311 311 311 311 311 310 311 313 315 313 314 317 319 320 318 314 307 306 317 319 318 317 317 316 311 316 314 309 307 303 306 305 300 307 308 309 307
308 308 309 308 308 309 310 309 310 311 310 312 311 312 311 310 310 313 314 313 314 316 319 320 319 312 301 315 318 317 319 316 318 318 317 319 317 310 307 306 304 301 300 298 305 307 306
309 309 309 309 308 308 309 310 310 311 311 311 311 311 311 310 311 313 314 313 315 316 318 320 313 308 297 316 311 317 319 312 315 316 316 318 314 305 305 300 297 298 293 295 298 303 305
308 308 308 308 307 307 308 309 310 310 311 311 311 312 311 311 312 313 314 312 315 315 312 313 310 301 302 299 308 310 317 315 311 311 308 308 305 300 300 297 288 293 293 295 294 295 299
311 311 311 309 308 307 307 308 310 310 310 311 311 311 311 311 313 313 310 310 303 301 305 299 299 299 300 304 308 310 314 313 312 307 299 304 298 293 297 300 299 298 296 295 297 297 295
312 312 311 311 311 309 307 308 309 310 310 311 311 311 310 312 313 312 309 302 303 305 295 303 303 302 305 305 298 305 313 306 304 297 302 298 293 299 302 301 299 297 295 295 298 298 296
310 311 311 311 311 310 307 307 308 309 309 309 311 310 312 312 312 309 305 304 312 309 294 297 302 301 301 303 296 299 309 305 301 298 298 295 297 302 300 299 295 296 293 294 293 294 295
311 311 311 310 310 310 308 308 308 309 309 309 310 311 311 312 305 307 303 310 312 311 286 288 295 300 302 303 295 306 307 302 300 296 298 297 300 299 299 296 297 292 298 296 291 291 287
311 311 311 311 310 310 310 309 309 309 309 309 310 310 311 311 306 302 306 311 310 305 276 292 295 305 303 297 298 300 308 302 294 295 296 292 293 295 296 298 299 294 297 296 294 291 289
311 312 311 310 310 310 309 309 309 309 308 310 310 310 310 307 307 307 310 308 304 285 276 286 293 294 293 296 297 301 300 303 302 295 294 292 297 296 296 297 299 298 295 294 293 290 281
312 312 310 310 310 309 309 309 309 309 309 309 310 309 307 307 300 308 308 302 283 277 287 284 287 292 292 291 293 295 293 292 289 283 284 290 291 295 297 293 296 296 290 282 280 278 278
311 311 311 311 311 310 310 309 309 308 309 309 308 307 304 303 305 307 303 289 276 282 283 288 287 290 288 291 292 292 290 287 292 289 285 283 280 291 295 291 290 291 291 283 276 277 279
311 311 311 311 311 310 309 309 310 310 309 309 310 304 303 302 304 306 294 281 280 282 285 284 287 285 284 287 290 290 288 288 290 292 284 283 284 292 294 295 295 290 286 288 280 277 277
310 311 310 310 310 310 310 310 310 309 309 309 303 300 299 302 303 301 286 281 283 287 286 286 282 285 282 284 287 287 287 287 291 295 295 289 283 290 293 295 295 291 290 279 280 271 271
310 310 310 310 310 310 309 309 309 308 307 306 302 292 301 302 302 290 282 282 285 289 289 286 283 282 284 283 285 284 284 286 289 293 296 293 288 287 291 289 287 289 285 286 286 281 274
309 309 309 309 310 309 309 308 307 307 307 306 298 285 301 301 286 284 283 283 287 287 291 288 288 285 284 285 283 283 283 286 290 292 290 292 289 284 285 292 294 291 287 287 280 278 279
308 309 309 309 309 309 308 308 306 306 306 302 291 292 300 298 281 282 283 284 287 286 287 287 285 287 287 284 281 284 285 289 291 291 289 292 286 281 283 287 290 288 289 289 288 286 280
308 308 308 308 307 307 307 306 306 303 302 302 295 284 287 289 288 283 281 281 281 289 286 288 287 289 286 285 287 284 285 288 290 290 293 293 286 283 279 282 287 285 288 289 288 279 280
307 307 306 306 306 306 305 305 305 302 301 300 292 281 282 282 283 284 284 283 280 278 286 287 285 284 284 281 283 282 285 286 289 290 290 290 282 284 284 286 286 287 287 288 286 287 282
307 306 306 306 305 305 304 304 304 300 300 296 289 284 284 280 283 284 284 279 280 280 283 282 281 284 284 280 283 279 283 284 284 288 287 289 281 284 280 285 286 282 287 288 288 289 288
306 306 306 306 305 304 303 302 302 300 300 294 291 292 291 284 283 283 281 280 281 282 283 285 283 282 281 282 286 287 288 287 286 284 283 284 281 276 270 280 280 272 282 285 287 289 288
306 306 306 306 306 305 304 303 301 299 300 297 293 293 288 280 284 282 283 283 282 283 281 284 285 283 285 289 288 286 285 284 286 285 286 281 281 278 273 272 265 280 285 286 287 290 291
305 305 305 305 305 305 305 304 302 301 301 295 293 294 288 281 283 283 283 282 283 283 282 283 285 287 289 286 279 271 271 271 273 282 283 284 281 269 268 267 276 278 281 281 282 282 285
304 304 304 304 303 304 304 304 304 302 301 296 293 293 293 284 282 285 282 283 280 277 279 282 287 289 288 282 274 266 264 263 265 270 282 284 283 273 266 264 262 279 282 286 285 276 285
300 301 302 302 303 303 303 303 303 303 302 298 293 294 293 284 284 284 282 281 284 282 279 279 282 282 286 277 271 268 266 270 266 265 266 268 269 265 265 263 270 281 282 287 269 276 284
300 299 300 301 301 301 302 302 302 302 302 299 293 295 292 286 284 286 285 282 282 282 278 281 279 280 276 272 272 270 269 271 271 276 274 270 267 265 265 263 265 284 282 278 283 283 284
299 299 299 300 300 300 302 302 303 302 301 301 293 295 295 287 284 289 288 289 286 284 283 282 281 277 282 276 274 274 269 270 270 266 279 271 278 274 275 274 283 285 284 287 286 284 282
Wind_Speed
17 17 16 16 16 13 14 14 15 15 13 12 9 7 8 9 9 10 9 9 10 7 11 9 6 5 4 6 5 5 5 11 5 6 7 4 4 4 6 4 12 5 2 0 1 5 7
16 16 18 18 18 18 16 16 15 14 14 12 13 7 8 9 10 10 10 9 10 10 12 11 11 6 4 14 10 10 7 4 8 5 5 3 3 3 5 1 4 9 11 2 3 2 5
15 15 17 16 16 18 19 15 15 15 14 12 12 8 9 8 10 11 10 9 10 12 9 17 13 6 4 6 8 9 9 3 3 5 2 1 6 1 2 1 7 9 8 5 5 6 2
17 19 17 17 18 15 16 16 16 17 14 13 9 10 9 10 11 11 10 9 10 12 11 17 16 8 5 7 9 9 9 3 5 2 3 5 0 7 3 3 7 8 6 5 5 6 1
20 18 19 17 17 18 14 15 16 15 12 13 8 7 8 11 12 11 9 8 9 12 7 10 8 8 3 10 7 12 10 6 7 2 3 4 2 3 2 4 4 2 3 5 5 7 1
18 18 18 18 18 16 14 14 15 13 12 12 8 7 9 12 13 10 6 5 8 5 7 3 3 2 8 8 8 11 12 10 5 6 2 3 2 2 2 4 6 8 4 3 6 8 6
25 24 23 20 18 16 16 13 14 13 12 10 8 8 10 13 11 9 3 3 1 3 3 1 1 5 8 7 8 10 12 13 7 5 7 3 3 5 9 7 7 5 2 2 2 9 6
24 22 21 21 21 17 16 15 12 11 8 10 7 7 11 9 8 7 2 5 0 1 3 4 8 6 3 3 8 11 8 9 7 7 7 3 5 7 12 10 7 7 6 4 6 6 7
23 21 20 20 19 18 16 15 11 11 7 5 7 5 5 6 6 3 5 7 3 5 3 1 2 4 4 2 6 14 11 3 10 11 13 6 3 12 8 12 13 9 9 6 1 6 7
23 22 20 18 18 16 17 13 10 10 4 3 5 3 6 7 3 2 5 5 1 1 1 4 6 7 6 5 4 8 4 4 2 12 13 6 4 12 12 15 15 11 13 9 6 6 3
23 20 18 16 16 16 17 12 9 7 4 5 4 7 6 7 2 2 5 5 2 2 4 10 6 2 3 2 13 5 2 3 5 5 4 5 6 7 13 17 16 4 10 12 6 4 7
22 20 14 13 13 14 17 13 11 8 4 6 3 8 7 2 3 5 2 4 3 4 6 1 2 7 9 5 2 7 5 4 7 5 9 2 2 5 4 5 10 9 10 12 7 3 3
23 18 1 10 11 14 17 14 11 9 7 7 12 13 6 4 3 4 4 1 0 3 2 2 1 3 8 5 6 14 15 12 7 8 4 3 3 2 3 8 10 14 10 4 2 1 5
23 19 15 16 17 18 17 14 12 10 13 15 15 14 10 6 4 3 2 3 2 1 3 1 2 5 5 4 4 14 13 11 6 6 11 8 3 8 4 1 7 8 9 4 5 5 4
25 21 19 19 20 19 16 13 11 13 17 15 10 4 3 5 4 2 2 1 3 4 4 4 0 2 3 2 3 6 11 12 7 6 6 11 4 3 8 2 6 4 4 3 6 1 3
23 22 21 20 18 15 14 12 15 16 14 11 3 4 3 7 4 0 4 5 3 3 4 3 3 6 2 1 5 5 9 2 4 3 5 6 6 6 5 1 3 3 6 5 3 3 3
21 20 18 17 16 14 14 16 15 11 5 2 2 4 3 7 2 5 3 3 0 2 2 6 5 3 5 2 4 4 3 3 3 3 6 3 6 4 6 6 9 4 4 3 5 4 4
20 18 18 18 18 18 17 15 11 6 3 4 3 4 4 5 5 1 2 1 3 5 8 7 5 6 6 4 6 4 4 4 4 3 4 1 4 7 5 3 4 6 5 4 4 4 4
20 18 17 16 15 13 12 12 11 9 10 1 3 2 2 2 4 3 1 2 6 5 5 3 4 5 2 4 4 5 5 4 6 3 2 2 1 7 3 3 2 3 5 6 2 3 4
19 18 17 16 14 12 9 9 7 8 8 2 2 2 4 5 1 4 2 4 3 4 6 4 3 3 4 6 8 4 4 5 6 5 9 4 2 3 4 4 2 6 8 7 5 3 2
17 16 16 15 11 10 9 7 6 5 7 2 4 2 0 3 4 4 2 2 2 4 4 7 5 5 4 3 3 4 4 3 8 6 4 3 4 4 6 6 4 4 3 7 9 7 5
15 14 15 14 13 11 10 5 4 2 6 3 3 4 2 2 3 4 4 4 2 1 5 4 7 13 11 8 7 4 2 5 5 4 3 5 2 3 3 4 5 3 6 5 3 9 9
13 14 15 15 14 14 13 10 5 2 4 3 0 1 2 2 1 1 2 3 3 4 7 6 4 8 10 8 8 6 6 5 5 4 2 4 3 3 1 5 3 5 11 10 5 3 5
11 11 12 14 16 16 15 14 11 6 4 3 2 1 4 2 4 2 6 8 8 7 5 6 9 5 3 4 0 7 9 11 8 7 6 4 3 2 2 2 0 5 5 1 13 8 11
9 9 9 11 13 14 16 17 14 13 9 4 1 2 3 4 3 4 7 6 6 8 6 8 6 3 4 3 3 4 5 7 7 7 6 4 3 3 4 3 5 2 3 1 4 2 7
8 7 7 8 10 11 13 14 15 14 8 4 3 2 3 6 1 3 3 2 2 2 3 3 3 1 3 2 2 3 0 2 3 4 6 3 5 5 2 3 6 1 1 5 3 2 6
3 3 5 6 7 9 10 11 11 11 11 4 3 3 3 5 1 3 2 2 2 3 4 1 3 5 5 1 3 2 2 0 1 4 3 2 2 4 2 2 8 4 1 4 8 5 4
5 3 2 3 5 7 8 9 9 10 10 4 1 4 3 3 2 2 2 3 2 1 3 3 3 3 3 4 3 1 2 4 2 3 6 7 6 4 1 2 9 7 4 5 5 4 5
9 6 5 1 2 4 7 8 7 9 10 7 3 2 4 7 3 5 6 5 4 2 4 0 2 2 2 4 2 3 1 2 1 3 3 4 7 6 9 8 4 6 2 5 4 3 1
Wind_Direction
307 303 304 294 292 301 301 303 299 297 304 307 292 299 310 314 312 287 288 292 306 304 199 188 187 175 241 164 226 128 22 336 329 17 352 74 64 107 171 322 336 308 36 121 313 288 300
304 304 308 293 292 296 294 294 290 289 291 295 291 273 287 301 299 291 276 284 291 299 223 189 192 184 260 219 135 148 105 345 46 49 17 2 139 81 111 355 358 315 302 158 189 78 13
302 301 301 288 292 294 284 282 279 279 278 274 278 247 268 285 295 297 270 278 285 300 251 196 189 178 268 223 164 147 149 137 42 24 346 238 110 123 101 145 343 318 297 187 154 175 164
303 296 295 286 291 297 283 276 281 277 271 262 260 263 256 280 287 292 267 274 284 299 278 202 185 206 264 159 146 147 159 167 118 10 306 165 319 117 82 243 29 341 300 174 143 195 238
298 296 291 282 282 281 288 280 283 282 271 256 242 260 260 283 284 286 257 275 289 297 260 185 168 229 214 125 152 185 184 185 122 109 348 160 193 108 131 85 73 53 290 136 113 9 99
289 284 280 280 276 272 273 285 281 281 273 250 243 256 264 279 283 270 232 273 285 177 65 85 50 155 177 206 172 175 189 169 122 147 88 170 102 118 111 141 178 180 192 320 60 354 320
285 279 272 264 263 265 261 270 279 276 268 238 239 255 271 282 271 208 181 206 135 170 191 272 243 207 131 96 156 158 183 161 139 184 154 160 196 199 167 149 130 128 124 325 36 14 339
293 286 273 263 255 252 252 251 268 263 278 240 235 254 282 268 193 170 244 228 78 70 189 229 301 250 133 142 159 163 187 169 172 176 135 123 239 195 175 167 135 167 177 222 309 16 3
302 292 275 265 252 235 234 236 252 250 252 287 225 265 240 153 135 151 227 245 114 145 30 246 240 208 167 268 180 173 187 172 161 167 187 151 158 221 242 163 170 220 175 152 307 352 353
304 295 281 264 249 226 216 222 232 224 217 255 197 215 156 147 163 173 230 79 312 76 132 208 201 212 155 256 106 146 190 99 58 180 189 222 325 207 198 184 183 184 212 148 155 153 202
312 299 276 256 236 212 200 198 199 200 180 216 195 169 172 200 67 179 58 104 311 186 258 142 158 127 76 236 132 209 112 105 194 125 137 148 157 211 189 192 178 170 123 165 181 46 8
330 314 282 235 217 195 181 172 182 172 175 175 178 137 147 247 69 36 96 116 76 169 244 184 98 154 147 219 140 125 141 168 119 78 76 63 312 353 35 29 122 116 81 65 64 86 225
359 356 14 178 167 164 156 161 168 151 154 116 94 73 62 30 54 357 341 183 201 228 332 60 0 206 141 135 131 166 163 164 153 139 149 171 104 45 254 91 131 129 135 108 125 170 225
26 40 86 119 133 137 143 148 149 144 127 116 106 93 85 50 346 300 266 68 253 336 38 19 337 100 176 130 139 163 170 181 207 193 147 176 180 175 213 203 179 173 161 152 178 184 182
45 55 76 97 111 122 133 138 135 135 137 131 120 93 59 6 345 296 37 98 29 10 325 343 334 119 97 96 104 148 175 182 196 213 144 179 171 141 147 21 144 177 208 94 92 19 68
51 60 74 90 102 112 120 125 131 135 140 158 105 108 48 337 337 322 79 88 21 20 325 275 44 8 74 122 129 163 159 358 191 209 19 138 120 162 121 154 179 176 133 68 356 134 230
57 63 71 83 96 106 118 121 120 112 122 354 64 59 18 340 319 45 75 66 52 354 123 31 28 73 49 37 37 82 60 52 339 226 273 22 120 157 128 222 170 181 165 191 136 140 170
66 70 77 79 86 98 105 101 87 74 329 32 41 76 5 321 54 29 62 334 309 21 21 48 51 41 29 32 33 85 103 60 293 267 169 356 107 143 159 2 17 218 162 174 130 226 243
65 70 71 71 79 95 98 76 64 51 20 13 88 60 52 318 105 84 325 359 52 25 20 100 57 8 122 23 96 41 80 12 355 61 90 264 58 120 115 314 57 177 220 207 234 91 205
61 58 57 49 52 48 36 42 50 37 10 351 106 52 11 42 32 107 125 5 76 79 42 53 85 133 34 44 44 64 61 46 58 49 13 9 62 65 129 99 119 165 199 216 213 131 196
64 61 57 49 38 32 13 358 20 13 347 22 16 89 307 76 23 83 69 109 19 25 47 4 36 52 63 86 79 72 62 46 57 21 47 66 98 83 78 85 17 75 183 215 216 226 188
66 64 62 56 50 44 29 14 87 38 341 69 128 143 173 117 289 98 31 1 74 10 8 28 87 66 61 63 42 83 329 25 43 46 45 338 106 98 80 118 140 171 238 268 255 240 265
61 59 55 50 45 45 44 45 36 349 328 96 110 111 83 310 258 58 62 160 93 135 31 30 42 96 78 48 45 44 32 47 71 50 57 32 92 46 167 355 44 337 210 197 189 224 203
67 63 62 59 47 40 37 40 42 41 333 98 8 188 84 61 52 32 101 84 79 53 107 40 11 67 20 285 170 34 34 45 42 42 30 53 46 27 138 28 43 248 354 242 196 209 225
75 61 51 59 60 49 37 33 40 50 49 84 52 43 102 94 101 69 81 96 73 75 75 82 42 34 304 310 76 51 353 24 348 16 8 4 60 63 127 198 281 324 51 58 163 128 24
82 67 51 45 51 51 49 41 34 34 38 76 53 303 100 126 8 102 84 30 99 85 50 55 65 1 261 115 111 104 77 216 347 357 356 322 47 105 37 119 209 201 89 344 352 261 73
118 74 53 42 45 47 45 41 37 37 31 65 67 355 85 104 33 32 118 129 21 61 75 11 7 8 357 45 64 82 150 102 127 145 167 66 20 153 206 225 290 245 175 344 91 219 108
174 225 357 18 42 44 34 34 31 27 22 49 124 10 77 90 90 37 22 121 89 18 134 186 63 354 12 57 97 206 129 211 118 178 172 163 147 193 182 101 276 161 107 184 185 140 121
187 199 242 209 23 24 44 33 28 20 9 353 78 30 30 79 91 46 61 45 31 19 112 120 136 169 197 82 360 82 85 76 166 246 192 226 188 185 179 211 232 194 104 103 103 134 121